User: anonymous   Login
Location: Newark
(52.4787°S, 179.0532°W)
Time: 03:08:09
(UTC+00:00)
Language:

Vanguard 2 - Orbit

View from above orbital plane
View from above orbital plane
View from above satellite
View from above satellite

Ground track
Ground track

The orbit data is extracted from the following two-line orbital elements,

1    11U 59001A   19326.79360189  .00000198  00000-0  97495-4 0  9997
2    11  32.8659 115.0383 1466891 159.2318 207.4752 11.85628834592067
Epoch (UTC): 22 November 2019 19:02:47
Eccentricity: 0.1466891
inclination: 32.8659°
perigee height: 554 km
apogee height: 2937 km
right ascension of ascending node: 115.0383°
argument of perigee: 159.2318°
revolutions per day: 11.85628834
mean anomaly at epoch: 207.4752°
orbit number at epoch: 59206

The dashed part of the orbit path shows where the satellite is in the earth's shadow,  

DLR